Simultaneous Nadir Overpasses (SNOs) Predictions

Prediction of SNOs between GOES-16 and NOAA-20 Satellite Orbit:

Table of predicted SNOs for the next 14.0 days since TLE Epoch: 6/22/2024
Index Date Time (GOES-16) GOES-16 Lat,Lon NOAA-20 Lat,Lon Distance(km) Time Diff (sec)
1 06/22/2024 18:28:49 -0.01, -75.20 -0.13, -75.68 54.73 80
2 06/23/2024 18:07:21 -0.01, -75.21 0.89, -71.14 463.00 80
3 06/25/2024 06:31:44 0.01, -75.22 0.28, -76.40 134.55 80
4 06/26/2024 06:10:17 0.01, -75.22 -0.74, -71.86 383.62 80
5 06/27/2024 18:34:48 -0.02, -75.23 -0.47, -77.14 218.09 80
6 06/28/2024 18:13:21 -0.01, -75.24 0.55, -72.60 300.65 80
7 06/30/2024 06:37:44 0.02, -75.27 0.61, -77.86 295.52 80
8 07/01/2024 06:16:17 0.01, -75.28 -0.42, -73.32 223.27 80
9 07/02/2024 18:40:49 -0.01, -75.30 -0.72, -78.62 378.02 80
10 07/03/2024 18:19:21 0.00, -75.31 0.31, -74.08 141.03 80
11 07/05/2024 06:43:44 -0.01, -75.34 0.91, -79.32 454.49 80
